RH
27 32 37 40 40 40 34 34 44 55 53 31 20 17 28 36 18 23 33 35 36 31 32 29 22 20 19 19 18 19 18 18 19 19 21 19 21 19 18 19 21 24 25 28 31 37 31
28 28 32 28 34 37 33 28 28 41 46 60 60 46 23 19 29 22 21 21 27 25 19 17 17 16 17 17 17 18 21 22 19 21 24 26 21 18 19 20 21 25 30 32 38 42 37
40 36 28 26 27 25 27 26 46 26 25 57 45 47 69 42 20 30 23 24 22 18 21 23 27 32 39 29 29 25 26 29 27 24 24 27 26 24 25 28 35 40 31 38 41 39 40
53 48 41 34 34 36 32 30 28 36 31 34 67 42 39 95 47 22 30 33 22 19 21 26 34 37 43 38 32 33 36 32 26 26 29 31 29 25 26 27 33 37 30 34 41 52 56
61 60 52 34 33 41 46 37 30 38 43 46 49 60 51 47 100 65 24 30 32 35 31 30 31 33 42 49 49 43 36 31 25 25 23 25 26 28 31 35 40 40 40 42 50 48 54
86 84 64 54 41 50 64 43 44 52 78 43 52 73 60 69 61 100 94 44 29 26 28 33 32 34 31 44 42 42 38 29 28 27 33 40 35 35 41 54 49 47 49 62 70 67 57
100 100 72 53 52 46 53 41 56 32 50 44 43 64 76 62 79 75 86 88 78 42 30 27 28 34 36 37 40 38 39 39 32 26 24 40 50 35 44 44 51 62 53 50 66 82 71
100 100 80 64 44 65 60 62 58 32 31 29 26 32 77 79 73 83 99 93 71 58 58 31 26 27 32 32 32 29 30 29 31 41 43 48 47 48 46 54 60 73 82 59 50 53 68
100 100 93 71 48 60 97 83 61 28 26 25 26 48 52 68 79 74 73 68 64 56 53 89 71 52 49 50 50 50 45 45 50 54 60 59 57 57 62 65 65 71 75 84 76 77 67
71 83 95 55 57 100 100 78 70 60 28 24 31 39 48 56 57 63 56 61 55 48 48 51 67 93 96 84 69 64 64 62 68 72 76 76 87 86 87 92 83 86 98 96 100 98 93
58 63 75 43 38 99 100 100 100 87 62 50 36 25 28 29 36 44 43 44 44 43 35 40 50 54 60 66 74 82 84 74 71 70 71 68 70 72 73 77 81 84 86 83 85 96 100
64 64 54 35 38 60 100 100 100 74 57 61 56 28 22 22 20 22 25 29 31 37 35 38 40 40 44 45 50 60 73 77 80 73 79 91 79 90 97 100 93 77 74 71 75 79 72
68 68 59 43 30 100 100 100 93 60 76 77 70 38 28 26 27 33 39 45 46 46 50 39 45 38 36 34 37 44 53 59 74 95 100 100 100 100 100 100 87 88 87 88 94 98 85
100 83 67 53 46 55 84 69 58 61 71 74 58 45 35 32 34 43 52 56 54 55 56 54 58 60 69 82 86 70 52 52 57 72 71 95 100 100 92 90 83 83 94 89 96 77 56
75 64 56 33 29 28 73 86 73 57 48 32 39 42 49 50 55 56 52 49 46 50 54 57 58 60 62 56 60 58 63 76 77 72 70 66 64 73 73 74 87 97 84 94 82 74 76
62 72 59 49 48 95 90 64 68 71 46 33 28 30 54 57 45 47 48 51 57 70 66 65 62 68 64 58 50 49 61 54 51 61 62 61 60 64 51 55 76 72 62 61 67 60 55
85 51 64 73 58 86 87 72 87 70 43 31 27 31 40 44 45 58 49 57 66 80 52 52 55 46 38 33 32 29 27 30 27 28 33 32 34 40 35 32 44 41 44 48 65 65 91
64 61 53 72 98 100 95 96 64 58 37 32 34 48 45 39 39 44 44 50 50 32 33 32 20 19 18 20 19 21 21 22 20 17 26 30 31 30 39 44 37 44 47 70 72 100 100
52 67 100 100 98 83 80 50 51 36 30 39 47 47 40 39 56 66 58 36 36 25 20 16 12 12 13 12 12 14 14 17 17 26 24 34 30 31 34 55 44 42 54 70 88 92 96
74 100 99 91 79 49 44 43 36 34 47 59 61 42 45 60 59 50 36 32 24 18 18 15 10 10 9 11 12 10 11 11 14 15 18 21 23 27 23 27 38 32 37 43 58 61 72
96 80 81 70 43 36 41 43 40 51 57 51 48 56 63 89 61 43 29 20 15 17 17 8 8 6 6 5 6 7 7 7 8 11 12 19 19 22 20 19 18 24 31 34 44 44 43
87 77 64 35 35 35 40 46 40 49 38 42 62 78 63 56 38 26 11 12 12 11 7 6 6 6 6 6 5 6 6 6 6 7 8 9 11 10 10 12 13 15 20 19 22 32 31
68 42 30 38 37 42 54 69 54 43 38 59 65 65 54 43 28 15 8 7 7 6 7 6 6 6 6 6 6 5 5 5 5 5 6 7 8 9 9 10 10 12 14 16 16 16 26
32 32 40 41 43 49 69 88 52 40 52 71 64 56 56 27 20 9 7 8 7 7 7 7 7 7 7 7 7 6 5 4 5 5 5 6 6 7 7 8 9 9 11 14 14 14 14
45 48 40 46 56 99 93 62 41 63 58 77 56 30 30 15 11 8 8 8 8 9 9 8 7 7 7 7 6 6 5 5 5 5 5 6 6 6 6 8 8 8 8 10 11 12 12
50 45 58 60 94 64 64 44 57 69 64 67 42 28 14 11 9 8 9 9 9 10 10 10 10 10 10 8 7 6 5 5 6 6 6 6 7 7 8 8 9 8 8 8 8 9 11
52 55 57 56 89 79 61 56 58 54 83 51 38 18 12 11 9 9 10 10 10 10 10 10 10 11 10 9 9 8 7 6 7 7 6 7 7 7 7 7 8 8 9 9 9 11 10
65 58 60 94 95 73 65 80 77 73 53 40 30 14 12 10 9 10 10 10 11 10 10 9 10 10 11 12 12 10 9 8 8 7 7 7 8 8 8 8 8 10 10 9 10 10 11
65 62 68 99 80 55 76 76 60 56 70 33 15 12 10 10 10 10 10 10 10 10 9 8 10 11 12 13 13 12 11 10 10 10 10 10 9 10 10 9 9 10 10 11 11 11 13
Wind_Speed
28 23 24 24 24 23 26 25 25 24 23 25 25 23 21 19 21 24 30 36 36 35 36 37 33 32 31 30 32 27 28 27 28 28 29 30 32 34 33 36 32 36 41 40 40 39 34
26 26 23 27 26 25 31 29 28 25 27 26 29 33 29 28 28 25 25 28 30 28 28 29 27 27 26 29 25 27 27 29 30 30 32 34 36 32 33 37 40 41 41 41 41 40 34
26 29 28 27 31 31 32 40 32 33 33 29 30 30 36 36 34 32 27 27 27 28 27 29 29 27 27 30 28 28 29 31 34 35 37 39 38 37 37 38 41 43 42 43 47 47 37
23 28 26 28 30 35 36 39 41 39 33 32 30 28 33 39 40 37 33 30 31 33 35 35 35 32 33 33 32 34 36 38 39 40 42 42 43 42 43 45 47 45 46 47 49 47 43
22 28 33 33 33 34 37 45 46 39 37 37 34 32 32 35 41 42 39 40 42 42 43 41 39 34 38 38 37 39 39 42 45 47 49 51 51 48 51 56 56 54 54 51 53 53 53
29 31 36 39 39 38 38 40 50 43 41 40 38 37 35 30 32 41 43 43 44 45 47 48 47 45 44 45 48 52 54 50 50 54 57 57 54 53 57 61 58 59 58 61 61 60 58
30 35 41 41 41 43 42 46 52 45 42 39 45 39 35 32 30 35 42 41 43 46 49 51 51 52 52 54 55 60 61 62 62 63 61 58 59 57 67 67 64 65 61 59 59 63 65
36 42 44 45 48 45 47 48 52 48 45 46 47 43 37 31 29 30 33 36 39 42 45 55 58 58 62 64 68 68 67 67 65 62 64 63 66 70 70 70 66 66 66 64 64 66 65
39 45 47 48 48 47 49 49 54 50 46 49 48 43 38 34 33 31 33 35 37 40 42 50 55 59 62 64 66 66 66 65 65 66 69 68 70 71 74 72 70 69 68 70 70 73 69
45 47 51 49 48 49 51 54 56 57 56 50 45 38 44 40 35 37 39 40 42 42 42 44 49 56 57 57 59 63 64 64 66 68 69 66 71 70 70 72 77 72 77 76 76 78 75
46 43 47 48 47 50 54 58 60 61 61 62 63 47 45 45 45 43 44 47 48 52 51 52 56 60 62 63 64 64 66 67 70 72 72 71 71 73 74 76 79 77 80 82 83 82 81
48 49 51 52 50 50 55 62 65 67 67 69 68 59 58 57 53 54 58 57 57 59 59 61 63 66 70 72 74 74 76 78 79 81 81 80 82 80 85 86 89 87 89 90 88 87 84
54 53 56 55 51 54 59 63 67 69 73 72 73 67 64 65 69 68 69 72 71 69 70 70 75 76 76 78 79 81 82 83 87 91 90 89 88 88 91 93 95 95 95 96 96 95 92
61 59 60 60 58 58 64 68 69 74 77 75 74 73 75 73 69 71 76 78 79 78 79 79 83 87 90 90 90 93 94 93 94 97 96 98 98 100 99 105 107 102 104 102 105 105 103
59 60 61 64 67 65 67 72 76 78 79 71 75 75 75 75 78 82 87 89 89 89 92 94 96 99 99 99 101 104 100 102 104 105 106 110 107 108 105 107 111 111 109 110 114 108 113
60 65 65 70 68 67 73 75 79 84 83 80 79 78 79 81 86 90 95 98 102 105 103 109 108 111 110 113 116 112 113 114 114 116 117 117 122 118 117 112 110 116 116 115 118 119 118
64 68 70 75 73 73 77 86 88 90 88 86 86 85 88 94 92 100 101 107 112 110 113 113 114 120 117 120 125 123 124 122 120 120 125 127 128 122 129 121 119 121 121 121 122 123 119
70 70 75 78 76 83 89 91 92 91 92 95 93 99 99 101 106 111 111 115 116 118 119 123 128 130 130 124 122 122 121 120 126 121 122 127 130 127 127 128 125 125 124 123 127 122 124
74 75 75 78 84 91 97 95 94 94 97 100 103 109 107 111 120 122 126 125 125 124 125 129 130 127 127 126 127 125 123 124 124 126 123 127 130 133 131 132 132 130 129 128 128 130 128
75 76 84 89 95 95 92 95 97 102 108 107 112 111 115 120 123 128 129 131 133 131 131 130 119 114 111 110 114 112 116 117 120 122 122 125 129 132 132 131 133 132 131 130 131 133 130
83 87 90 96 94 96 97 101 104 107 110 113 115 122 127 130 131 131 131 138 136 129 120 112 104 103 100 94 96 101 102 100 105 110 113 120 124 127 124 125 122 123 126 126 131 132 134
87 92 94 92 97 99 100 105 112 118 116 117 125 128 129 130 128 127 122 112 107 104 107 100 97 94 93 91 91 90 96 98 95 98 99 106 112 114 108 109 111 111 114 117 115 120 124
92 93 94 98 103 105 104 113 120 121 125 128 133 136 136 135 127 117 106 101 96 95 90 89 86 81 81 77 79 81 82 82 84 87 90 93 97 100 100 102 103 102 103 108 111 108 112
91 96 99 102 107 112 111 123 127 127 133 137 142 139 139 131 121 110 99 95 90 84 78 77 75 75 74 72 69 70 70 70 73 76 78 81 83 85 86 92 95 95 94 99 103 106 106
96 100 106 109 116 117 123 130 129 134 141 144 141 139 133 125 108 103 97 88 80 75 76 72 73 69 66 65 62 61 60 60 63 65 68 71 74 76 75 79 82 83 86 88 91 93 92
101 106 110 115 116 123 129 134 139 141 146 149 144 141 127 114 106 98 90 82 77 74 74 71 68 64 63 61 59 56 54 54 56 57 60 62 63 64 67 71 73 75 78 80 81 81 81
109 111 115 118 124 132 136 140 141 149 149 147 146 135 118 109 103 92 84 81 77 74 71 65 64 62 58 56 54 52 51 50 50 50 52 53 55 58 62 65 66 68 69 72 72 71 76
114 117 122 127 131 138 144 146 152 152 150 147 141 122 114 107 98 88 85 80 79 75 68 61 58 56 55 52 51 48 47 46 47 47 48 48 48 51 56 56 56 59 62 64 64 67 67
121 124 127 131 136 145 146 150 152 151 152 141 125 116 109 100 94 88 86 82 77 71 68 60 56 53 50 49 48 46 43 41 42 42 42 43 44 44 48 50 50 53 54 56 60 59 61
Wind_Direction
22 15 10 12 7 3 358 342 333 325 310 300 296 293 288 288 282 276 271 267 263 264 266 270 268 263 260 257 259 256 262 256 264 267 273 270 268 272 276 275 274 276 285 290 290 291 291
22 19 8 359 358 355 349 353 345 321 308 311 308 292 284 284 285 277 275 274 270 264 261 264 264 263 266 262 259 257 267 268 263 267 271 271 272 270 271 275 277 279 283 283 285 284 290
6 8 8 1 2 352 343 340 344 342 330 304 307 293 281 282 275 273 270 269 268 257 257 259 267 265 268 267 267 266 268 268 266 267 268 272 271 272 272 274 278 280 274 279 280 282 280
360 1 358 357 356 357 353 344 335 333 341 329 307 309 292 276 273 267 260 264 261 256 257 260 263 263 267 271 271 273 276 275 271 273 272 271 272 272 274 274 274 278 277 277 278 280 279
348 349 348 348 349 347 344 351 343 330 330 335 325 311 313 286 268 268 264 263 263 264 260 260 262 260 266 268 270 274 274 274 275 273 270 272 271 274 276 275 273 274 277 281 283 281 279
335 341 342 341 341 340 342 344 345 328 323 327 326 320 316 315 279 268 269 268 267 269 267 262 259 260 263 264 272 277 278 279 279 282 278 272 271 274 276 276 277 275 275 277 278 275 280
330 330 335 335 337 337 335 338 342 332 324 323 332 321 314 315 300 282 275 276 276 269 268 265 260 262 261 262 272 276 278 280 282 283 279 273 274 275 273 277 276 275 274 276 275 275 273
319 324 324 326 329 333 334 334 334 333 321 320 320 320 315 303 300 290 283 276 279 278 276 272 270 270 272 267 271 276 275 277 277 278 277 273 276 277 276 278 277 276 276 276 274 272 270
309 312 318 322 326 329 327 329 331 334 326 329 318 317 311 307 291 290 290 288 285 285 281 279 279 275 274 272 271 273 274 275 276 277 276 276 276 275 277 278 275 274 275 274 273 273 272
313 305 311 318 322 323 319 321 322 327 328 326 329 327 327 309 299 287 282 281 280 278 278 278 279 278 279 280 279 275 274 274 274 274 275 274 274 274 273 275 273 274 274 274 273 273 272
308 309 306 313 316 316 319 318 319 322 325 323 327 323 318 319 310 303 293 287 281 278 276 272 274 274 273 275 274 274 274 274 275 275 275 274 273 275 277 276 275 274 275 274 272 272 272
310 310 312 316 313 315 315 314 316 316 317 320 323 321 321 316 308 303 310 301 292 288 286 284 282 281 280 277 274 273 273 273 274 274 274 275 275 276 276 277 279 278 277 274 272 273 275
308 310 311 313 312 313 309 311 311 313 316 316 318 318 317 315 315 313 310 310 306 300 293 290 289 285 281 279 278 277 273 273 274 274 272 270 271 270 272 273 274 274 275 275 274 277 279
302 304 308 310 309 305 303 305 307 310 314 316 318 316 314 313 311 311 309 306 303 297 293 291 289 287 285 281 278 277 277 274 271 271 270 270 269 268 273 275 273 272 274 275 276 274 273
302 302 309 308 312 303 304 304 308 312 316 315 313 312 311 312 310 308 305 302 299 297 294 292 290 287 283 278 279 276 272 271 269 269 271 270 269 270 270 270 271 272 273 272 273 273 275
305 304 306 308 309 306 304 307 311 313 311 310 309 308 310 309 308 305 305 303 299 294 288 286 284 283 282 281 278 273 272 273 271 271 271 270 271 273 272 270 269 270 270 270 272 272 272
302 308 304 306 308 307 308 310 310 310 310 310 310 310 309 306 304 305 302 301 300 297 290 286 286 285 283 284 282 281 279 277 276 274 271 272 272 270 272 272 267 267 268 268 267 268 269
308 306 305 308 310 310 310 310 311 310 310 310 313 313 312 310 306 306 302 300 303 298 292 290 288 287 284 279 278 276 274 270 271 270 266 267 267 266 265 264 263 262 263 264 264 264 265
307 308 309 308 307 308 310 312 311 311 312 313 313 313 311 313 312 311 307 301 297 294 293 290 288 285 284 280 278 275 271 269 266 265 263 262 262 263 262 260 262 260 260 260 262 263 263
307 306 308 310 310 311 311 312 314 316 317 315 314 315 316 315 313 310 304 300 298 297 296 295 292 288 284 279 277 276 273 271 270 269 268 266 264 262 263 263 263 263 261 261 261 262 263
305 305 308 309 310 313 314 313 317 318 319 318 317 316 319 317 315 312 306 301 301 299 298 297 294 291 289 286 282 280 276 272 269 269 268 267 268 268 268 269 266 265 264 261 262 263 263
305 306 308 311 313 313 316 321 323 322 320 318 321 320 320 315 311 312 309 304 301 301 299 296 295 292 289 287 285 280 278 276 274 271 269 268 267 268 268 268 267 266 267 267 264 264 265
307 308 312 314 316 315 318 323 322 320 320 322 323 322 320 315 312 312 312 309 307 304 300 298 295 294 291 289 286 283 280 276 274 272 270 267 267 268 269 268 267 267 266 266 267 267 265
310 314 316 317 318 322 321 322 321 321 324 324 323 322 320 313 315 314 314 313 309 305 302 299 298 297 296 293 290 286 282 278 275 272 271 269 269 268 268 267 267 267 266 265 265 266 266
317 317 318 323 323 324 322 322 323 325 324 325 323 320 319 318 317 317 317 315 311 308 306 304 303 301 299 296 294 289 285 281 277 273 272 270 269 269 268 267 267 267 266 263 263 264 266
315 321 323 324 325 323 323 324 323 324 325 325 325 323 321 320 320 318 318 314 312 310 308 307 306 305 304 301 299 294 288 283 279 276 273 271 269 268 266 263 263 262 263 263 263 264 265
319 325 325 324 323 324 323 325 325 325 325 323 324 321 323 322 320 320 317 315 314 312 307 308 306 305 305 304 302 298 293 287 283 279 277 273 270 267 266 265 265 265 265 264 265 264 263
323 323 324 325 322 322 323 324 325 324 323 325 323 324 324 322 320 319 318 316 315 313 310 310 308 306 304 306 304 302 295 291 287 283 280 278 274 271 270 268 267 265 265 266 265 264 264
324 324 324 322 322 324 324 324 323 324 329 323 324 324 322 321 320 319 318 317 317 315 313 313 311 307 305 304 305 303 299 293 288 285 283 280 277 274 272 272 270 268 267 266 265 263 262